Weather History for KCSM - January, 2010

Change the Weather History Date:

Friday, January 1, 2010

  Actual Average Record
Temperature  
Mean Temperature 36 °F -  
Max Temperature 48 °F 47 °F 72 °F (2006)
Min Temperature 23 °F 28 °F 10 °F (2001)
Degree Days  
Heating Degree Days 30    
Moisture  
Dew Point 26 °F    
Average Humidity 77    
Maximum Humidity 89    
Minimum Humidity 50    
Precipitation  
Precipitation 0.00 in - - ()
Sea Level Pressure  
Sea Level Pressure 30.38 in    
Wind  
Wind Speed 9 mph (South)    
Max Wind Speed 21 mph    
Max Gust Speed -    
Visibility 8 miles    
Events      
Averages and records for this station are not official NWS values.
T = Trace of Precipitation, MM = Missing Value Source: NWS Daily Summary

Daily Weather History Graph

Daily Weather History Graph

Search for Another Location

Airport or City:

Trip Planner

Search our weather history database for the weather conditions in past years. The results will help you decide how hot, cold, wet, or windy it might be!

Date:

Astronomy

Jan. 01, 2010 Rise Set
Actual Time 7:45 AM CST 5:35 PM CST
Civil Twilight 7:17 AM CST 6:03 PM CST
Nautical Twilight 6:45 AM CST 6:35 PM CST
Astronomical Twilight 6:14 AM CST 7:06 PM CST
Moon 6:55 PM CST (1/1) 8:32 AM CST (1/1)
Length of Visible Light 10h 45m
Length of Day
9h 49m
Full, 99% of the Moon is Illuminated
Jan 1
Full
Jan 7
Last Quarter
Jan 15
New
Jan 23
First Quarter
Jan 30
Full

Hourly Weather History & Observations

Time (CST) Temp. Windchill Dew Point Humidity Pressure Visibility Wind Dir Wind Speed Gust Speed Precip Events Conditions
12:53 AM 27.0 °F 18.7 °F 23.0 °F 85% 30.45 in 10.0 mi SSW 8.1 mph - N/A   Clear
1:53 AM 24.1 °F 19.7 °F 21.0 °F 88% 30.43 in 8.0 mi SSW 3.5 mph - N/A   Clear
2:53 AM 23.0 °F 15.8 °F 19.9 °F 88% 30.41 in 7.0 mi SSW 5.8 mph - N/A   Clear
3:53 AM 25.0 °F 17.1 °F 21.9 °F 88% 30.40 in 6.0 mi SSW 6.9 mph - N/A   Clear
4:53 AM 26.1 °F 16.8 °F 21.9 °F 84% 30.39 in 6.0 mi SW 9.2 mph - N/A   Clear
5:53 AM 25.0 °F 14.8 °F 21.9 °F 88% 30.41 in 5.0 mi SSW 10.4 mph - N/A   Clear
6:53 AM 25.0 °F 17.1 °F 21.9 °F 88% 30.41 in 6.0 mi South 6.9 mph - N/A   Clear
7:53 AM 25.0 °F 15.5 °F 21.9 °F 88% 30.40 in 5.0 mi South 9.2 mph - N/A   Clear
8:53 AM 28.9 °F 18.6 °F 26.1 °F 89% 30.40 in 6.0 mi South 12.7 mph - N/A   Clear
9:53 AM 33.1 °F 24.4 °F 28.9 °F 85% 30.41 in 8.0 mi South 11.5 mph - N/A   Clear
10:53 AM 36.0 °F 26.7 °F 28.9 °F 76% 30.39 in 10.0 mi South 15.0 mph - N/A   Clear
11:53 AM 41.0 °F 33.1 °F 30.0 °F 65% 30.36 in 10.0 mi South 15.0 mph - N/A   Clear
12:53 PM 45.0 °F 38.5 °F 30.0 °F 56% 30.33 in 10.0 mi SSW 13.8 mph - N/A   Clear
1:53 PM 48.0 °F - 30.0 °F 50% 30.30 in 10.0 mi SSW 13.8 mph - N/A   Clear
2:53 PM 46.9 °F - 32.0 °F 56% 30.31 in 10.0 mi SSW 10.4 mph - N/A   Clear
3:53 PM 48.0 °F - 32.0 °F 54% 30.29 in 10.0 mi SSW 9.2 mph - N/A   Clear
4:53 PM 46.9 °F - 34.0 °F 61% 30.30 in 10.0 mi South 9.2 mph - N/A   Clear
5:53 PM 39.0 °F 34.0 °F 30.9 °F 73% 30.33 in 10.0 mi South 6.9 mph - N/A   Clear
6:53 PM 37.0 °F 31.6 °F 30.9 °F 79% 30.35 in 10.0 mi South 6.9 mph - N/A   Clear
7:53 PM 35.1 °F 31.0 °F 30.0 °F 82% 30.37 in 10.0 mi South 4.6 mph - N/A   Clear
8:53 PM 30.0 °F 18.3 °F 25.0 °F 82% 30.41 in 8.0 mi NNE 17.3 mph - N/A   Clear
9:53 PM 28.0 °F 16.1 °F 21.9 °F 78% 30.43 in 9.0 mi NNE 16.1 mph - N/A   Clear
10:53 PM 24.1 °F 9.4 °F 18.0 °F 77% 30.45 in 10.0 mi NNE 20.7 mph - N/A   Clear
11:53 PM 23.0 °F 9.2 °F 17.1 °F 78% 30.46 in 10.0 mi NNE 17.3 mph - N/A   Clear